{"data":{"norad_id":51737,"epoch":"2026-09-20T04:20:24.952704Z","epoch_age_seconds":79191,"freshness":"FRESH","line1":"1 51737U 22016Z   26263.18084436  .00006890  00000+0  19308-3 0  9993","line2":"2 51737  53.1563 151.7799 0002791  97.5228 262.6093 15.37792713253114","mean_motion":15.37792713,"eccentricity":0.0002791,"inclination_deg":53.1563,"raan_deg":151.7799,"arg_perigee_deg":97.5228,"mean_anomaly_deg":262.6093,"bstar":0.00019308,"rev_number":25311,"period_min":93.640709038787,"perigee_km":450.73145681807,"apogee_km":454.54439538182,"semimajor_km":6830.7749260999,"source":"CELESTRAK","updated_at":"2026-09-20T09:00:39.930565Z"}}